Pecs, Hungary

2:09 AM CET on March 24, 2017 (GMT +0100)
Pecs

Weather History for LHPP - October, 2013

Change the Weather History Date:

Tuesday, October 8, 2013

  Actual Average Record
Temperature  
Mean Temperature 56 °F -  
Max Temperature 65 °F 58 °F - ()
Min Temperature 48 °F 43 °F - ()
Degree Days  
Heating Degree Days 8    
Growing Degree Days 6 (Base 50)    
Moisture  
Dew Point 45 °F    
Average Humidity 62    
Maximum Humidity 77    
Minimum Humidity 43    
Precipitation  
Precipitation 0.04 in 0.06 in - ()
Sea Level Pressure  
Sea Level Pressure 30.28 in    
Wind  
Wind Speed 5 mph ()    
Max Wind Speed 12 mph    
Max Gust Speed -    
Visibility 9.1 miles    
Events Rain    
T = Trace of Precipitation, MM = Missing Value Source: Averaged Metar Reports

Daily Weather History Graph

Daily Weather History Graph

Search for Another Location

Airport or City:

Trip Planner

Search our weather history database for the weather conditions in past years. The results will help you decide how hot, cold, wet, or windy it might be!

Date:

Astronomy

Oct. 08, 2013 Rise Set
Actual Time 6:54 AM CEST 6:13 PM CEST
Civil Twilight 6:24 AM CEST 6:43 PM CEST
Nautical Twilight 5:50 AM CEST 7:18 PM CEST
Astronomical Twilight 5:15 AM CEST 7:53 PM CEST
Moon 10:41 AM CEST (10/8) 8:22 PM CEST (10/8)
Length of Visible Light 12h 19m
Length of Day
11h 19m
Waxing Crescent, 14% of the Moon is Illuminated
Oct 8
Waxing Crescent
Oct 12
First Quarter
Oct 19
Full
Oct 27
Last Quarter
Nov 3
New

Hourly Weather History & Observations

Time (CEST) Temp. Dew Point Humidity Pressure Visibility Wind Dir Wind Speed Gust Speed Precip Events Conditions
12:45 AM 53.6 °F 39.2 °F 58% 30.33 in - ENE 3.5 mph - N/A   Clear
1:45 AM 51.8 °F 39.2 °F 62% 30.33 in - ESE 1.2 mph - N/A   Clear
2:00 AM 51 °F 40 °F 55% 30.35 in 19 mi ESE 2.2 mph - -   Partly Cloudy
2:45 AM 48.2 °F 39.2 °F 71% 30.33 in - NE 4.6 mph - N/A   Clear
3:45 AM 50.0 °F 41.0 °F 71% 30.33 in - ENE 5.8 mph - N/A   Clear
4:45 AM 51.8 °F 41.0 °F 67% 30.33 in - NE 5.8 mph - N/A   Clear
5:45 AM 50.0 °F 41.0 °F 71% 30.30 in - ENE 5.8 mph - N/A   Clear
6:15 AM 50.0 °F 41.0 °F 71% 30.30 in - East 6.9 mph - N/A   Clear
6:45 AM 50.0 °F 41.0 °F 71% 30.30 in - ENE 5.8 mph - N/A   Clear
7:00 AM - - N/A% - - East 6.9 mph - N/A   Clear
7:15 AM 50.0 °F 41.0 °F 71% 30.30 in - East 5.8 mph - N/A   Clear
7:45 AM 50.0 °F 41.0 °F 71% 30.30 in - ENE 5.8 mph - N/A   Clear
8:00 AM 51 °F 41 °F 59% 30.31 in 19 mi ENE 6.7 mph - -   Partly Cloudy
8:15 AM 51.8 °F 41.0 °F 67% 30.33 in - East 4.6 mph - N/A   Clear
8:45 AM 53.6 °F 41.0 °F 62% 30.33 in - East 6.9 mph - N/A   Clear
9:15 AM 53.6 °F 41.0 °F 62% 30.33 in - East 10.4 mph - N/A   Clear
9:45 AM 55.4 °F 42.8 °F 63% 30.33 in - East 8.1 mph - N/A   Clear
10:00 AM - - N/A% - 6.2 mi East 9.2 mph - N/A   Clear
10:15 AM 57.2 °F 42.8 °F 59% 30.33 in - East 9.2 mph - N/A   Clear
10:45 AM 59.0 °F 44.6 °F 59% 30.33 in - East 9.2 mph - N/A   Clear
11:15 AM 59.0 °F 44.6 °F 59% 30.30 in - East 10.4 mph - N/A   Clear
11:45 AM 60.8 °F 44.6 °F 55% 30.30 in - ESE 10.4 mph - N/A   Clear
12:15 PM 60.8 °F 46.4 °F 59% 30.30 in - ESE 10.4 mph - N/A   Clear
12:45 PM 62.6 °F 46.4 °F 55% 30.30 in - ESE 9.2 mph - N/A   Clear
1:00 PM - - N/A% - 6.2 mi ESE 9.2 mph - N/A   Clear
1:15 PM 62.6 °F 46.4 °F 55% 30.30 in - ESE 11.5 mph - N/A   Clear
1:45 PM 64.4 °F 46.4 °F 52% 30.27 in - SE 10.4 mph - N/A   Clear
2:00 PM 64 °F 47 °F 43% 30.27 in 12 mi SE 11.2 mph - -   Partly Cloudy
2:15 PM 64.4 °F 46.4 °F 52% 30.27 in - SE 11.5 mph - N/A   Clear
2:45 PM 66.2 °F 46.4 °F 49% 30.27 in - SE 10.4 mph - N/A   Clear
3:15 PM 64.4 °F 46.4 °F 52% 30.27 in - SE 10.4 mph - N/A   Clear
3:45 PM 66.2 °F 46.4 °F 49% 30.24 in - SE 8.1 mph - N/A   Clear
4:00 PM - - N/A% - 6.2 mi ESE 9.2 mph - N/A   Mostly Cloudy
4:45 PM 60.8 °F 46.4 °F 59% 30.24 in - South 2.3 mph - N/A   Clear
5:01 PM 62.6 °F 48.2 °F 59% 30.24 in - Calm Calm - N/A   Unknown
5:02 PM 62.6 °F 48.2 °F 59% 30.24 in 6.2 mi Calm Calm - N/A Rain Light Rain
5:15 PM 62.6 °F 46.4 °F 55% 30.24 in - Calm Calm - N/A   Clear
5:45 PM 62.6 °F 48.2 °F 59% 30.24 in - Calm Calm - N/A   Clear
6:15 PM 60.8 °F 48.2 °F 63% 30.24 in - North 2.3 mph - N/A   Clear
6:45 PM 59.0 °F 50.0 °F 72% 30.24 in - NNE 2.3 mph - N/A   Clear
7:15 PM 59.0 °F 48.2 °F 67% 30.24 in - NNW 2.3 mph - N/A   Clear
7:45 PM 59.0 °F 48.2 °F 67% 30.24 in - NNE 3.5 mph - N/A   Clear
8:00 PM 59 °F 48 °F 57% 30.24 in 16 mi NNE 2.2 mph - -   Partly Cloudy
8:15 PM 59.0 °F 48.2 °F 67% 30.24 in 6.2 mi East 4.6 mph - N/A   Overcast
8:45 PM 57.2 °F 48.2 °F 72% 30.24 in 6.2 mi East 4.6 mph - N/A   Overcast
9:15 PM 57.2 °F 46.4 °F 67% 30.24 in 6.2 mi ENE 5.8 mph - N/A   Overcast
9:45 PM 57.2 °F 46.4 °F 67% 30.24 in 6.2 mi East 4.6 mph - N/A Rain Light Rain
10:45 PM 55.4 °F 48.2 °F 77% 30.24 in 6.2 mi ESE 3.5 mph - N/A Rain Light Rain
11:45 PM 55.4 °F 48.2 °F 77% 30.21 in 6.2 mi East 3.5 mph - N/A Rain Light Rain